NOAA 18

Last updated on Thu Jul 03 2025 00:02:22 GMT+0000 (Coordinated Universal Time)

1 28654U 05018A 25183.55487797 .00000053 00000+0 51357-4 0 9992 2 28654 98.8422 262.7730 0015208 66.7274 293.5497 14.13616092 36916
UTC large
Height (km)
Speed (km/s)
/
Latitude / Longitude
Inclination (degrees)
Orbital Period (minutes)
Azimuth
Elevation
Range (km)
Doppler Factor

Next 0 passes for location: London (51.5072 / 0.1276)

Sorry there are no passes over London.